Location: C.E.K. Mees Observatory
(42.7003°N, 77.4088°W)
Time: 08:48:44
(UTC-05:00)

N. Korean satellite - Pass Details

Date: 16 October 2017
Orbit: 461 x 513 km, 97.2° (Epoch: 16 December)

Event Time Altitude Azimuth Distance (km) Brightness Sun altitude
Rises 20:12:35 0° 208° (SSW) 2,534 10.5 -20.5°
Reaches altitude 10° 20:15:27 10° 234° (SW) 1,649 9.9 -21.0°
Maximum altitude 20:17:25 14° 268° (W) 1,405 9.9 -21.3°
Drops below altitude 10° 20:19:22 10° 302° (WNW) 1,642 10.2 -21.7°
Sets 20:22:13 0° 328° (NNW) 2,516 10.8 -22.2°
